Location: Powder Track
(41.8531°N, 72.3584°W)
Time: 08:04:20
(UTC+00:00)

Altair - Pass Details

Date: 04 August 2021
Orbit: 1501 x 1682 km, 47.2° (Epoch: 19 September)

Event Time Altitude Azimuth Distance (km) Brightness Sun altitude
Exits shadow 06:41:34 30° 255° (WSW) 2,489 8.2 -26.1°
Maximum altitude 06:46:55 80° 339° (NNW) 1,552 7.4 -25.6°
Drops below altitude 10° 06:56:10 10° 67° (ENE) 3,662 10.2 -24.7°
Sets 06:59:11 0° 69° (ENE) 4,639 10.8 -24.5°
